SCP
0 0 0 1 1 1 0 0 1 1 1 1 1 1 1 1 1 1 1 1 1 1 1 1 1 2 1 1 1 1 1 1 1 1 1 1 1 1 1 1 1 1 1
0 0 1 1 1 1 1 0 1 1 1 1 1 1 2 2 1 1 1 1 1 1 1 1 1 2 2 1 1 1 1 1 1 1 1 1 1 1 1 1 1 1 1
0 1 1 1 1 1 1 1 1 1 1 1 1 1 2 2 2 1 1 1 1 1 1 1 1 2 2 2 2 1 1 1 1 1 1 1 1 1 1 1 1 1 0
1 1 1 1 1 1 1 1 1 1 1 1 1 1 2 2 2 2 2 1 1 1 1 1 1 1 2 2 2 2 1 1 1 1 1 1 1 1 1 1 1 0 0
1 1 1 1 1 1 1 1 1 1 1 1 1 2 2 2 2 2 2 2 2 1 1 1 1 1 2 2 2 2 2 1 1 1 1 1 1 1 1 1 0 0 0
1 1 2 1 1 1 1 1 1 1 1 1 1 2 2 2 3 3 3 2 2 2 2 1 1 1 2 2 1 2 2 1 1 1 1 1 1 1 1 1 1 0 0
1 1 1 1 1 1 1 1 1 1 1 1 1 2 2 2 3 3 3 3 2 2 2 1 1 2 2 1 1 1 1 1 1 1 1 1 1 1 1 1 1 1 0
1 1 1 1 1 1 1 1 1 1 1 1 1 1 2 2 3 3 3 3 2 2 2 1 1 1 2 2 1 1 1 1 1 1 1 1 1 1 1 1 1 1 1
0 0 1 1 1 1 1 1 1 1 1 0 0 1 1 2 3 3 3 3 2 2 1 1 1 1 2 2 2 1 1 1 1 1 1 1 1 1 1 1 1 1 1
1 0 0 0 0 1 1 1 1 1 0 0 0 0 1 1 2 3 3 3 2 2 1 1 1 1 1 2 2 2 1 1 1 1 1 1 1 1 1 1 1 1 1
1 1 1 1 1 1 1 0 0 0 0 0 0 0 1 1 2 2 2 2 2 2 1 1 1 1 1 2 2 2 1 1 1 1 1 1 1 1 1 1 1 1 1
1 1 1 1 1 1 1 0 0 0 0 0 0 0 1 1 1 2 2 2 2 2 2 1 1 1 1 1 1 1 1 1 1 1 1 1 1 2 1 1 1 1 1
1 1 1 1 1 1 1 1 0 0 0 0 0 0 0 1 1 2 2 2 2 2 2 1 1 1 1 1 1 1 1 1 1 1 1 1 2 2 2 2 1 1 1
1 1 1 1 1 1 1 1 0 0 0 0 0 0 0 1 1 2 2 3 3 2 2 2 2 1 1 1 1 1 1 1 1 1 1 1 1 2 2 1 1 1 1
0 1 1 1 0 1 1 1 0 0 0 0 0 0 0 1 1 1 2 2 3 2 2 1 1 1 1 1 1 1 1 1 1 1 1 1 1 1 1 1 1 1 1
0 0 0 0 0 0 1 1 1 0 0 0 0 0 0 0 1 1 1 2 2 2 1 1 1 1 1 1 1 1 1 1 0 0 1 1 1 1 0 1 1 1 1
0 0 0 0 0 0 1 1 1 1 1 1 0 0 0 0 1 1 1 1 1 1 1 0 0 1 1 1 1 1 1 1 0 0 1 1 0 0 0 0 1 1 1
0 0 0 0 0 0 1 1 1 1 1 1 1 0 0 0 0 1 1 0 0 0 0 0 0 0 0 1 1 1 1 0 0 0 1 1 1 0 0 0 0 1 1
0 0 0 0 0 0 0 1 1 1 1 1 1 1 0 0 0 1 1 1 0 0 0 0 0 0 0 0 0 0 0 0 0 0 0 1 0 0 0 0 0 0 1
0 0 0 0 0 0 0 0 1 1 1 1 1 1 1 1 0 1 1 1 0 0 0 0 0 0 0 0 0 0 0 0 0 0 0 0 0 0 0 0 0 1 1
0 0 0 0 0 0 0 0 1 1 1 1 1 1 1 1 1 1 1 1 1 0 0 0 0 0 0 0 0 0 0 0 0 0 0 0 0 0 0 0 1 1 1
0 0 0 0 0 0 0 1 1 1 1 1 1 1 1 1 1 1 1 1 1 1 1 0 0 0 0 0 0 0 0 0 0 0 1 0 0 0 0 0 1 1 1
0 1 0 0 0 0 0 1 1 1 1 1 1 1 1 1 1 1 1 1 1 1 1 1 0 0 0 0 0 0 0 0 0 1 1 1 1 1 1 1 1 1 1
0 1 1 0 0 0 0 0 1 1 1 1 1 1 1 1 1 1 1 1 1 1 1 1 0 0 0 0 0 0 0 0 0 0 1 1 1 1 1 1 1 1 1
0 1 0 0 0 0 0 0 0 0 0 0 0 1 1 1 1 1 1 1 1 1 1 1 0 0 0 0 0 0 0 0 0 0 0 1 1 1 1 1 1 1 1
0 1 0 0 0 0 0 0 0 0 0 0 0 1 1 1 1 1 1 1 1 1 1 1 0 0 0 0 0 0 0 0 0 0 0 0 0 1 1 1 1 1 0
Wind_Speed
1 1 3 3 3 3 4 5 6 6 6 6 6 5 5 5 5 5 5 5 5 6 6 7 7 8 8 8 8 8 9 8 9 9 9 9 9 9 9 8 7 8 10
0 1 2 2 3 3 4 5 6 6 6 6 6 6 5 4 4 4 4 5 5 5 5 6 7 7 7 7 8 8 8 8 8 8 7 8 9 9 9 8 6 7 9
1 1 1 3 3 3 5 5 6 6 5 6 6 6 5 5 4 4 4 4 4 4 5 6 6 7 7 7 7 7 8 8 7 6 5 6 8 9 9 8 8 9 9
1 1 2 4 3 4 5 5 5 5 5 5 5 5 5 5 5 4 3 3 3 4 5 5 6 6 7 7 7 7 7 7 6 3 4 5 6 8 8 7 8 8 8
1 1 3 4 4 5 5 5 5 5 5 5 5 5 5 5 5 4 4 3 3 3 4 5 5 6 6 6 6 7 7 6 5 3 4 4 5 6 6 6 7 7 6
2 2 4 4 4 5 5 5 5 5 5 5 4 4 4 4 4 4 4 3 3 2 4 5 5 5 6 6 6 6 6 5 5 4 3 3 4 6 6 6 6 6 6
2 2 4 4 5 5 5 6 6 5 5 5 5 4 4 4 4 4 4 3 3 2 2 4 5 5 5 5 6 6 5 3 3 3 3 3 4 5 5 6 6 6 6
2 3 3 4 4 5 5 5 6 6 5 5 5 5 4 4 4 4 4 3 3 2 2 3 4 4 5 5 5 5 4 3 2 3 3 3 4 4 5 5 5 5 5
3 3 2 2 3 5 6 6 6 6 6 6 6 6 6 5 4 4 4 4 3 1 2 3 4 4 4 4 5 5 4 1 2 2 2 2 3 3 4 4 4 4 4
3 3 2 2 2 2 3 6 6 6 6 6 6 7 6 5 5 4 4 4 4 2 1 2 3 4 4 4 5 5 4 3 2 2 1 2 3 2 3 3 3 4 4
3 2 2 2 2 2 2 3 4 4 5 5 4 5 3 2 3 2 4 5 4 4 2 2 3 3 3 5 5 4 4 3 2 1 1 3 2 1 1 2 3 3 3
2 2 2 2 2 2 2 1 1 2 2 2 2 3 2 2 2 3 3 4 4 3 2 3 2 3 2 2 4 4 2 3 2 2 2 3 1 0 1 2 2 3 3
1 2 2 2 2 1 1 1 1 1 1 2 3 3 2 2 2 2 1 1 1 1 0 1 1 1 1 1 1 2 1 1 1 1 2 2 1 0 1 2 3 3 3
2 2 2 2 2 2 1 1 1 1 1 2 2 3 2 2 2 2 1 2 1 1 1 0 0 1 2 2 2 2 2 1 1 1 2 3 1 0 1 2 3 3 3
2 2 2 1 1 1 1 1 1 1 1 1 2 2 2 1 2 1 1 1 2 1 1 0 0 1 2 2 2 2 2 1 1 1 1 3 1 0 1 1 1 1 2
1 2 2 1 1 1 1 1 1 1 1 1 1 2 2 1 1 2 1 1 1 1 1 0 0 0 1 2 2 2 2 1 1 1 1 1 2 1 1 0 0 1 1
2 2 2 1 1 1 1 1 1 1 1 1 2 2 2 2 2 2 1 1 1 1 1 0 1 0 0 1 1 1 1 1 1 1 1 1 1 1 1 1 1 1 1
2 2 2 1 1 1 1 1 1 1 1 1 1 2 2 2 2 1 1 1 1 1 1 1 0 1 1 0 1 0 1 1 2 1 1 1 1 1 1 2 2 2 2
2 2 1 2 1 1 1 1 1 1 1 1 1 2 2 2 2 1 1 1 1 0 0 1 0 0 1 0 0 0 0 1 2 2 2 2 1 1 1 1 1 2 2
3 3 2 2 2 1 1 1 1 1 1 1 1 2 3 2 2 1 1 1 1 0 1 0 0 1 1 0 0 0 1 1 1 2 2 2 2 2 2 2 1 1 1
4 4 4 3 3 1 1 1 1 1 1 1 1 2 2 3 2 1 1 1 1 0 0 0 0 1 1 0 1 1 1 1 1 1 1 1 2 2 2 2 1 1 1
4 4 4 3 3 2 1 1 1 1 1 1 1 2 2 3 2 1 1 1 1 0 0 0 0 0 0 0 1 2 2 3 2 2 2 2 2 2 2 2 2 1 1
4 4 3 3 3 2 2 1 1 1 1 1 1 1 2 2 2 2 2 2 1 1 1 1 1 1 1 1 1 2 2 2 1 2 2 2 2 2 2 2 2 2 1
3 3 3 3 3 2 2 1 1 1 1 2 2 1 2 2 2 2 2 2 2 1 1 2 2 2 2 2 1 2 3 2 2 1 2 2 2 2 2 2 2 1 1
3 3 3 3 3 3 2 2 2 2 2 2 2 2 2 1 1 2 2 2 2 2 2 2 2 2 2 2 2 2 2 2 2 2 2 2 2 1 1 2 2 1 2
3 3 3 3 3 3 3 3 3 3 3 2 2 2 2 1 1 1 2 2 2 2 2 2 2 2 2 3 2 2 2 2 2 2 3 3 2 1 1 1 2 2 1
Wind_Direction
113 49 17 354 27 49 61 65 61 59 61 64 68 71 79 90 94 96 96 102 110 116 115 115 114 115 112 107 106 106 107 104 100 99 100 102 101 100 100 103 108 102 100
68 90 36 5 41 57 66 67 66 61 63 62 61 61 66 73 84 91 95 97 102 116 122 121 117 115 115 114 109 109 109 107 105 104 107 109 103 100 101 98 88 95 101
69 100 94 30 51 68 67 66 63 60 63 63 59 56 58 66 73 77 82 95 99 111 124 131 127 123 119 116 115 114 114 112 110 112 132 120 110 102 99 98 97 97 98
53 84 73 43 60 73 69 66 62 58 59 62 61 57 54 56 59 66 70 86 93 109 120 127 129 128 123 121 119 120 118 114 114 141 134 113 112 108 107 106 105 101 102
77 74 69 41 65 74 69 62 59 54 52 57 63 59 54 54 53 55 51 55 80 103 117 120 127 130 130 125 122 120 121 119 126 157 118 113 109 113 116 113 112 109 108
99 78 72 45 63 73 70 62 54 52 48 52 57 55 50 51 53 50 46 42 52 88 124 125 128 126 131 130 129 127 122 127 161 133 119 114 111 112 116 120 121 121 117
84 73 77 53 57 66 71 66 59 52 46 47 49 45 41 38 41 47 43 37 36 55 116 130 134 128 128 134 138 136 131 139 160 128 121 115 103 112 119 120 122 126 122
67 63 79 57 49 53 64 61 56 49 45 44 44 38 31 26 27 34 39 35 32 50 115 126 134 136 134 139 140 136 132 166 159 139 139 124 94 118 123 123 126 125 123
61 61 64 74 71 59 57 54 51 47 43 42 38 33 27 21 20 23 28 26 21 30 121 135 137 129 128 135 138 130 124 174 181 143 140 119 100 135 133 130 132 132 128
48 46 49 51 57 66 69 55 49 47 45 43 39 32 28 29 30 25 21 26 20 20 87 118 132 131 127 123 129 132 138 184 178 143 128 90 85 144 147 146 139 136 137
38 29 33 39 44 42 55 56 52 51 45 41 41 35 18 10 16 15 27 22 20 23 54 88 122 133 138 134 127 139 167 177 164 149 133 74 96 151 170 160 146 138 144
12 10 15 22 29 37 41 51 38 37 40 30 27 21 10 5 9 357 33 24 18 23 52 66 104 141 171 159 146 167 180 177 169 159 101 78 109 140 192 182 172 160 156
357 8 8 11 21 29 34 36 27 23 22 17 19 14 7 5 3 352 354 16 3 359 65 95 167 165 150 130 145 152 148 186 175 156 102 86 110 221 198 192 186 181 174
0 2 9 10 17 25 19 31 26 21 18 14 17 12 7 7 353 349 341 343 335 328 312 300 278 165 144 136 143 147 148 166 168 169 93 82 90 284 223 206 198 190 182
358 357 2 8 20 31 30 8 22 18 13 6 11 13 6 2 348 337 333 336 335 348 345 323 315 177 159 143 141 153 151 166 171 177 128 92 77 259 236 231 215 210 182
341 347 3 8 10 14 18 11 17 14 14 4 16 14 3 352 348 332 330 343 352 348 339 339 54 273 169 148 144 145 148 172 185 185 192 135 99 54 326 296 281 257 241
341 358 3 353 360 2 359 8 17 19 9 12 15 11 7 2 348 332 327 354 359 342 322 317 127 118 111 141 142 153 163 172 190 199 195 210 174 114 34 351 348 325 304
347 1 12 8 1 11 7 9 28 28 18 13 5 4 6 8 354 345 349 354 354 335 334 16 81 138 121 129 124 158 204 181 193 209 195 199 211 211 151 36 11 343 333
359 2 12 20 8 26 18 21 37 37 20 8 8 4 354 351 353 4 359 358 342 336 20 23 39 104 123 94 75 6 260 217 204 202 194 194 198 214 216 117 55 13 349
16 19 21 33 23 23 27 22 40 45 27 7 7 7 358 353 359 3 8 358 342 345 53 51 65 90 120 115 63 324 274 233 218 205 206 198 198 206 213 210 204 161 34
23 24 23 24 22 17 356 333 307 341 348 355 3 4 357 353 356 359 350 340 321 324 40 59 69 98 75 172 229 237 227 226 214 205 207 207 207 215 212 209 205 221 199
21 15 15 14 14 7 339 320 305 302 289 321 347 355 357 348 343 340 330 306 300 318 58 85 165 233 2 278 250 239 220 201 195 213 207 206 215 213 209 208 200 195 215
14 6 2 360 359 356 345 336 357 328 301 312 330 341 346 332 324 330 320 309 311 286 251 240 242 228 223 226 259 266 252 229 187 177 204 214 217 212 199 198 205 212 214
1 0 357 358 359 354 349 321 301 294 294 299 304 305 315 316 317 319 308 307 298 279 260 247 247 250 233 229 226 255 280 311 255 206 187 199 219 229 229 212 208 203 212
1 2 359 1 1 356 345 322 296 288 292 300 299 296 302 308 311 313 306 294 291 283 272 261 253 247 240 239 238 239 242 254 264 257 240 216 209 217 247 236 213 199 210
1 6 4 4 358 352 343 327 311 302 295 291 294 295 295 303 302 307 294 284 284 285 279 269 256 250 247 241 240 244 249 244 236 247 252 251 249 230 230 233 222 218 224